Location: Düngen
(52.0952°N, 10.0219°E)
Time: 15:57:43
(UTC+00:00)

NOSS 3-2 (C) - Pass Details

Date: 11 March 2026
Orbit: 672 x 1536 km, 63.4° (Epoch: 2 January)

Event Time Altitude Azimuth Distance (km) Brightness Sun altitude
Rises 19:02:26 0° 206° (SSW) 3,092 6.3 -16.8°
Reaches altitude 10° 19:04:39 10° 201° (SSW) 2,235 5.5 -17.1°
Maximum altitude 19:09:34 54° 125° (SE) 990 3.2 -17.8°
Drops below altitude 10° 19:15:30 10° 50° (NE) 2,682 5.5 -18.7°
Sets 19:18:23 0° 46° (NE) 3,773 6.3 -19.1°
